Stations météo

réclame
Mon MeteoGroup
Konstanz, Allemagne (10929): Température de l'air & dewpoint: 10.08.2018 21:00:00 - 16.08.2018 21:00:00 (CEST)Konstanz, Allemagne (10929): Température de l'air 5cm & Température de l'air -5cm: 10.08.2018 21:00:00 - 16.08.2018 21:00:00 (CEST)Konstanz, Allemagne (10929): Température de l'air -20cm & Température de l'air -100cm: 10.08.2018 21:00:00 - 16.08.2018 21:00:00 (CEST)Konstanz, Allemagne (10929): Vitesse du vent & gusts: 10.08.2018 21:00:00 - 16.08.2018 21:00:00 (CEST)Konstanz, Allemagne (10929): Direction du vent: 10.08.2018 21:00:00 - 16.08.2018 21:00:00 (CEST)Konstanz, Allemagne (10929): reduced air pressure: 10.08.2018 21:00:00 - 16.08.2018 21:00:00 (CEST)Konstanz, Allemagne (10929): visibility: 10.08.2018 21:00:00 - 16.08.2018 21:00:00 (CEST)Konstanz, Allemagne (10929): Ensoleillement: 10.08.2018 21:00:00 - 16.08.2018 21:00:00 (CEST)Konstanz, Allemagne (10929): Quantités de précipitations: 10.08.2018 21:00:00 - 16.08.2018 21:00:00 (CEST)
Date & Time tt [°C] td [°C] tt 5cm [°C] tt -5cm [°C] tt -20cm [°C] tt -100cm [°C] ff [km/h] ff [knt] fx [km/h] fx [knt] dd ppp [hPa] vv [km] sd [min] rr [mm]
16.08.2018 21:00:00 24,3 12,2 21,7 28,7 27,6 22,5 4 2 6 4 S 1012,6 70 17 0,0
16.08.2018 20:00:00 27,6 10,4 26,7 30,7 27,6 22,5 6 3 12 6 S 1011,9 70 60 0,0
16.08.2018 19:00:00 29,2 10,2 30,7 32,1 27,4 22,5 7 4 15 8 S 1011,8 70 60 0,0
16.08.2018 18:00:00 29,7 9,9 33,4 32,9 27,0 22,6 10 5 15 8 S 1012,1 58 60 0,0
16.08.2018 17:00:00 29,5 10,5 33,2 33,0 26,3 22,6 5 3 13 7 ENE 1012,4 54 60 0,0
16.08.2018 16:00:00 28,8 10,9 34,1 32,6 25,6 22,6 9 5 18 10 S 1013,0 47 60 0,0
16.08.2018 15:00:00 27,7 9,0 33,4 31,6 24,7 22,6 9 5 18 10 SSE 1013,9 44 60 0,0
16.08.2018 14:00:00 28,4 11,8 33,9 30,0 23,9 22,6 7 4 16 9 SSE 1014,2 46 60 0,0
16.08.2018 13:00:00 26,8 11,7 32,1 28,1 23,2 22,6 6 4 15 8 ESE 1014,9 58 60 0,0
16.08.2018 12:00:00 23,5 11,9 27,7 26,0 22,6 22,6 6 4 12 6 SSE 1016,1 52 60 0,0
16.08.2018 11:00:00 22,9 13,2 26,3 23,7 22,3 22,6 5 3 11 6 ESE 1016,7 64 60 0,0
16.08.2018 10:00:00 21,2 13,0 22,5 21,1 22,3 22,6 4 2 10 6 N 1017,4 70 60 0,0
16.08.2018 09:00:00 19,3 12,6 17,5 19,7 22,5 22,6 4 2 8 5 SE 1017,9 59 60 0,0
16.08.2018 08:00:00 17,5 13,6 16,5 19,5 22,7 22,6 3 2 7 4 N 1018,3 40 60 0,0
16.08.2018 07:00:00 15,4 13,2 13,8 19,5 23,0 22,6 6 3 9 5 N 1018,5 46 8 0,0
16.08.2018 06:00:00 15,7 13,3 14,0 19,9 23,4 22,6 4 2 9 5 N 1018,4 54 0 0,0
16.08.2018 05:00:00 15,9 13,3 13,8 20,4 23,7 22,6 2 1 5 3 W 1018,6 55 0 0,0
16.08.2018 04:00:00 16,4 13,3 14,2 20,9 24,1 22,6 4 2 6 3 WNW 1018,6 70 0 0,0
16.08.2018 03:00:00 16,7 13,0 14,6 21,5 24,4 22,6 3 2 5 3 W 1018,8 70 0 0,0
16.08.2018 02:00:00 17,5 13,0 15,4 22,1 24,8 22,6 3 2 7 4 NNW 1019,0 70 0 0,0
16.08.2018 01:00:00 18,4 12,5 16,2 22,8 25,2 22,6 0 0 9 5 N 1019,0 70 0 0,0
16.08.2018 00:00:00 19,2 13,1 17,5 23,6 25,6 22,7 8 4 13 7 N 1018,8 70 0 0,0
15.08.2018 23:00:00 20,1 14,1 18,4 24,5 26,0 22,7 6 4 10 5 NNE 1018,6 70 0 0,0
15.08.2018 22:00:00 20,8 13,2 19,0 25,7 26,4 22,7 4 2 8 4 ENE 1018,7 70 0 0,0
15.08.2018 21:00:00 22,7 13,5 20,8 27,1 26,6 22,7 4 2 6 3 SE 1018,0 70 22 0,0
15.08.2018 20:00:00 24,7 10,4 24,8 29,0 26,6 22,7 4 2 9 5 ESE 1017,4 70 60 0,0
15.08.2018 19:00:00 25,7 10,5 27,8 30,5 26,4 22,7 7 4 14 8 ESE 1017,2 70 60 0,0
15.08.2018 18:00:00 27,0 9,2 30,9 31,4 25,9 22,7 5 3 14 7 ENE 1017,3 59 60 0,0
15.08.2018 17:00:00 26,8 8,7 30,4 31,5 25,3 22,8 5 3 17 9 S 1017,5 56 60 0,0
15.08.2018 16:00:00 27,7 10,3 32,3 31,1 24,5 22,8 8 4 21 11 NE 1017,7 62 60 0,0
15.08.2018 15:00:00 27,1 11,5 31,0 30,2 23,6 22,8 9 5 18 10 NNE 1018,3 49 60 0,0
15.08.2018 14:00:00 25,4 11,3 29,2 28,6 22,7 22,8 9 5 17 9 E 1018,9 70 58 0,0
15.08.2018 13:00:00 24,1 12,3 27,7 26,5 22,0 22,8 7 4 15 8 ESE 1019,3 47 60 0,0
15.08.2018 12:00:00 22,3 12,9 25,6 24,5 21,4 22,8 7 4 13 7 ESE 1020,1 52 60 0,0
15.08.2018 11:00:00 21,9 13,8 25,1 22,3 21,1 22,8 6 3 11 6 SSE 1020,1 56 60 0,0
15.08.2018 10:00:00 20,4 13,3 21,0 19,9 21,0 22,8 4 2 7 4 SSW 1020,3 64 60 0,0
15.08.2018 09:00:00 18,6 12,9 17,1 18,3 21,1 22,8 4 2 8 5 W 1020,6 60 60 0,0
15.08.2018 08:00:00 16,2 13,0 15,9 18,1 21,3 22,9 5 3 6 3 W 1020,7 62 60 0,0
15.08.2018 07:00:00 15,3 13,0 13,4 17,9 21,6 22,9 4 2 11 6 NW 1020,8 68 5 0,0
15.08.2018 06:00:00 15,4 12,3 14,6 18,2 21,8 22,9 8 4 9 5 NW 1020,7 70 0 0,0
15.08.2018 05:00:00 15,8 12,7 14,9 18,5 22,1 22,9 7 4 10 5 NW 1020,4 70 0 0,0
15.08.2018 04:00:00 15,8 12,4 14,3 18,9 22,4 22,9 4 2 10 6 NW 1020,2 70 0 0,0
15.08.2018 03:00:00 16,6 12,9 15,2 19,4 22,7 22,9 8 4 13 7 NNW 1019,9 70 0 0,0
15.08.2018 02:00:00 16,7 13,5 14,6 19,8 23,0 22,9 5 3 8 4 WSW 1019,9 70 0 0,0
15.08.2018 01:00:00 17,6 13,2 16,1 20,3 23,3 22,9 6 3 10 5 WNW 1019,6 70 0 0,0
15.08.2018 00:00:00 18,5 14,1 17,0 20,9 23,6 22,9 7 4 11 6 NW 1019,0 70 0 0,0
14.08.2018 23:00:00 19,1 13,9 16,7 21,6 23,9 23,0 5 3 11 6 WNW 1018,6 70 0 0,0
14.08.2018 22:00:00 20,4 13,5 19,9 22,2 24,2 23,0 10 5 17 9 WNW 1018,0 70 0 0,0
14.08.2018 21:00:00 20,6 13,5 19,6 22,9 24,4 23,0 8 4 24 13 W 1017,1 70 10 0,0
14.08.2018 20:00:00 21,5 13,8 21,3 24,0 24,5 23,0 14 8 27 14 SW 1016,1 70 3 0,0
14.08.2018 19:00:00 23,6 12,0 23,4 25,8 24,5 23,0 9 5 18 10 W 1015,1 70 46 0,0
14.08.2018 18:00:00 24,8 11,4 26,4 26,1 24,3 23,0 8 4 17 9 WSW 1014,8 70 42 0,0
14.08.2018 17:00:00 23,6 11,5 24,3 25,7 24,1 23,0 8 4 21 11 W 1015,1 70 24 0,0
14.08.2018 16:00:00 23,5 11,8 26,7 25,6 23,8 23,1 7 4 20 11 W 1014,8 70 25 0,0
14.08.2018 15:00:00 22,9 13,8 26,1 25,2 23,5 23,1 9 5 13 7 W 1015,0 70 25 0,0
14.08.2018 14:00:00 20,2 14,6 19,8 24,6 23,2 23,1 7 4 23 12 NW 1015,7 70 5 1,5
14.08.2018 13:00:00 22,8 12,0 26,6 25,7 22,8 23,1 12 7 21 11 WSW 1014,8 70 53 0,0
14.08.2018 12:00:00 22,9 13,5 25,9 23,9 22,4 23,1 11 6 19 11 SW 1015,1 70 40 0,0
14.08.2018 11:00:00 21,5 14,7 24,2 23,6 22,1 23,1 7 4 17 9 SW 1015,3 70 53 0,0
14.08.2018 10:00:00 18,9 14,5 19,0 21,5 22,0 23,1 9 5 18 10 W 1015,6 70 10 0,0
14.08.2018 09:00:00 18,1 15,5 17,7 20,1 22,0 23,1 9 5 14 7 WSW 1015,4 70 2 0,0
14.08.2018 08:00:00 17,6 15,5 17,2 19,4 22,2 23,1 6 3 14 8 W 1015,0 70 10 0,0
14.08.2018 07:00:00 17,0 15,1 16,0 19,1 22,3 23,1 11 6 18 10 W 1014,5 70 0 0,0
14.08.2018 06:00:00 17,1 15,6 16,5 19,6 22,5 23,1 8 5 13 7 WSW 1013,9 70 0 0,1
14.08.2018 05:00:00 17,4 15,6 16,7 19,7 22,7 23,1 10 5 18 10 W 1013,7 23 0 0,1
14.08.2018 04:00:00 17,4 15,6 16,6 19,8 22,9 23,1 4 2 13 7 WNW 1013,6 70 0 0,0
14.08.2018 03:00:00 17,4 15,6 16,7 19,8 23,1 23,1 5 3 13 7 W 1013,5 70 0 0,0
14.08.2018 02:00:00 17,2 15,6 16,7 20,0 23,3 23,1 5 3 12 6 W 1013,5 70 0 0,0
14.08.2018 01:00:00 17,2 15,4 16,6 20,0 23,6 23,2 7 4 19 10 W 1013,6 70 0 0,0
14.08.2018 00:00:00 17,0 15,3 16,3 20,2 23,9 23,2 16 9 32 17 WSW 1013,1 31 0 1,0
13.08.2018 23:00:00 16,9 15,1 16,3 20,7 24,2 23,2 9 5 20 11 WSW 1012,7 70 0 0,0
13.08.2018 22:00:00 17,0 15,0 16,3 21,5 24,6 23,2 10 5 18 10 WSW 1012,4 70 0 0,1
13.08.2018 21:00:00 17,5 15,4 17,0 22,5 24,8 23,2 2 1 39 21 SSW 1011,4 31 0 2,3
13.08.2018 20:00:00 21,6 16,4 19,9 23,8 24,9 23,2 5 3 15 8 WSW 1010,0 70 8 0,0
13.08.2018 19:00:00 22,0 16,4 21,4 24,4 25,0 23,2 8 4 18 10 SW 1009,8 70 5 0,1
13.08.2018 18:00:00 21,4 15,8 20,1 24,9 25,1 23,2 11 6 16 9 SSW 1010,3 70 9 0,0
13.08.2018 17:00:00 20,6 16,7 20,3 25,0 25,2 23,2 6 3 16 9 SSE 1010,9 70 0 0,0
13.08.2018 16:00:00 19,9 17,2 19,9 24,3 25,3 23,2 8 4 23 13 S 1011,5 70 0 0,8
13.08.2018 15:00:00 20,1 15,8 18,3 25,0 25,5 23,2 16 9 24 13 SW 1012,2 14 0 0,6
13.08.2018 14:00:00 20,9 15,1 18,3 26,2 25,4 23,2 14 8 29 15 W 1011,6 16 0 0,3
13.08.2018 13:00:00 23,3 13,2 24,7 27,6 25,1 23,2 18 10 35 19 W 1011,1 70 0 0,0
13.08.2018 12:00:00 24,5 13,0 26,9 28,9 24,6 23,2 23 12 37 20 W 1011,3 70 29 0,0
13.08.2018 11:00:00 24,8 12,9 27,8 27,3 24,2 23,2 19 10 35 19 WSW 1010,8 65 60 0,0
13.08.2018 10:00:00 24,0 14,0 25,5 24,3 24,1 23,2 11 6 24 13 WNW 1010,9 70 56 0,0
13.08.2018 09:00:00 20,5 14,6 19,7 22,2 24,3 23,2 3 2 8 4 NNE 1011,0 70 15 0,0
13.08.2018 08:00:00 19,1 14,4 19,1 21,9 24,5 23,2 4 2 13 7 NE 1010,9 70 20 0,0
13.08.2018 07:00:00 17,2 14,1 16,9 21,6 24,7 23,2 6 3 18 10 W 1011,0 70 3 0,0
13.08.2018 06:00:00 18,0 14,8 16,9 22,0 25,0 23,2 5 3 10 5 N 1010,7 70 0 0,0
13.08.2018 05:00:00 17,8 15,2 16,7 22,1 25,4 23,2 5 3 7 4 NW 1011,0 66 0 0,0
13.08.2018 04:00:00 17,9 14,8 17,1 22,5 25,7 23,2 5 3 9 5 NW 1011,1 70 0 0,0
13.08.2018 03:00:00 18,2 15,3 16,4 23,1 26,1 23,2 6 3 9 5 NE 1011,2 70 0 0,0
13.08.2018 02:00:00 19,0 15,5 17,3 23,7 26,5 23,2 6 4 11 6 NNE 1011,7 70 0 0,0
13.08.2018 01:00:00 20,1 15,0 18,6 24,5 27,0 23,2 8 4 10 5 NE 1012,1 70 0 0,0
13.08.2018 00:00:00 20,8 15,8 19,5 25,3 27,4 23,2 8 4 11 6 E 1011,9 70 0 0,0
12.08.2018 23:00:00 21,5 15,4 19,7 26,3 27,9 23,2 7 4 10 5 NE 1011,8 70 0 0,0
12.08.2018 22:00:00 22,1 12,8 20,3 27,5 28,3 23,3 6 3 11 6 NE 1011,9 70 0 0,0
12.08.2018 21:00:00 24,8 12,4 22,9 29,2 28,5 23,3 8 4 15 8 SE 1011,5 70 42 0,0
12.08.2018 20:00:00 27,2 12,1 27,2 31,3 28,6 23,3 7 4 17 9 SSE 1011,1 70 60 0,0
12.08.2018 19:00:00 28,3 11,1 30,4 33,1 28,5 23,3 8 4 14 8 ESE 1011,2 70 60 0,0
12.08.2018 18:00:00 29,0 10,9 32,7 34,5 28,0 23,3 11 6 16 8 SSE 1011,6 61 60 0,0
12.08.2018 17:00:00 28,9 11,5 33,6 35,1 27,4 23,3 8 5 16 9 S 1012,1 40 60 0,0
12.08.2018 16:00:00 28,5 10,2 34,2 35,2 26,6 23,3 9 5 19 10 E 1013,1 47 60 0,0
12.08.2018 15:00:00 27,6 9,4 32,9 34,7 25,7 23,3 7 4 17 9 SSE 1013,9 48 60 0,0
12.08.2018 14:00:00 26,7 9,0 32,7 33,2 24,8 23,3 9 5 18 10 SSW 1014,7 45 60 0,0
12.08.2018 13:00:00 24,9 9,8 30,2 31,3 23,9 23,3 10 5 18 10 S 1015,8 53 60 0,0
12.08.2018 12:00:00 24,0 10,3 27,8 28,9 23,1 23,4 7 4 11 6 ESE 1016,4 56 60 0,0
12.08.2018 11:00:00 22,0 11,2 25,0 25,7 22,6 23,4 4 2 11 6 S 1017,0 70 60 0,0
12.08.2018 10:00:00 20,2 10,3 21,3 22,1 22,5 23,4 5 3 10 5 S 1017,5 70 60 0,0
12.08.2018 09:00:00 18,1 9,1 16,9 19,2 22,7 23,4 4 2 8 4 SW 1018,0 70 60 0,0
12.08.2018 08:00:00 16,6 9,1 15,8 19,3 23,0 23,4 4 2 8 4 W 1018,7 70 60 0,0
12.08.2018 07:00:00 13,9 8,8 12,4 18,7 23,3 23,4 5 3 6 4 WNW 1019,4 70 8 0,0
12.08.2018 06:00:00 14,0 9,8 11,8 19,1 23,7 23,4 4 2 5 3 W 1019,6 62 0 0,0
12.08.2018 05:00:00 15,1 8,0 12,5 19,6 24,1 23,4 6 3 10 6 ENE 1019,9 70 0 0,0
12.08.2018 04:00:00 15,8 7,9 12,9 20,2 24,5 23,4 6 3 10 5 N 1020,4 70 0 0,0
12.08.2018 03:00:00 16,2 8,4 13,5 20,8 24,9 23,4 6 3 9 5 NNW 1020,8 70 0 0,0
12.08.2018 02:00:00 16,8 8,3 14,1 21,5 25,3 23,4 5 3 15 8 NE 1021,1 70 0 0,0
12.08.2018 01:00:00 17,2 11,2 15,8 22,3 25,7 23,5 10 5 16 9 NNE 1021,2 70 0 0,0
12.08.2018 00:00:00 17,8 12,4 16,5 23,1 26,2 23,5 8 4 14 8 N 1021,4 70 0 0,0
11.08.2018 23:00:00 18,3 10,2 16,5 24,0 26,7 23,5 6 3 11 6 NNE 1021,4 70 0 0,0
11.08.2018 22:00:00 19,8 10,1 17,0 25,3 27,1 23,5 4 2 12 6 S 1021,1 70 0 0,0
11.08.2018 21:00:00 21,3 9,8 19,9 26,9 27,4 23,5 8 4 14 8 S 1020,7 70 18 0,0
11.08.2018 20:00:00 23,2 9,2 23,1 29,1 27,5 23,5 8 4 18 10 SE 1020,3 70 60 0,0
11.08.2018 19:00:00 24,3 8,6 26,8 31,1 27,3 23,6 10 6 19 11 ESE 1020,2 70 60 0,0
11.08.2018 18:00:00 25,6 8,5 29,1 32,6 26,9 23,6 11 6 24 13 SSE 1020,1 48 60 0,0
11.08.2018 17:00:00 25,6 5,4 30,4 33,4 26,3 23,6 8 5 24 13 SSW 1020,3 49 60 0,0
11.08.2018 16:00:00 25,7 5,8 30,7 33,1 25,5 23,6 10 6 24 13 WSW 1021,2 39 60 0,0
11.08.2018 15:00:00 23,6 5,6 29,6 32,0 24,7 23,6 10 5 24 13 WSW 1022,1 45 60 0,0
11.08.2018 14:00:00 23,7 6,6 28,2 29,7 24,0 23,6 10 6 27 15 SW 1022,8 70 59 0,0
11.08.2018 13:00:00 23,2 7,1 26,6 28,2 23,4 23,6 11 6 22 12 SW 1023,1 70 32 0,0
11.08.2018 12:00:00 21,0 7,8 23,5 27,6 22,8 23,6 9 5 18 10 WSW 1023,8 70 51 0,0
11.08.2018 11:00:00 20,6 9,0 23,7 24,9 22,4 23,7 10 5 18 10 SW 1024,3 70 60 0,0
11.08.2018 10:00:00 19,5 9,7 20,7 21,6 22,3 23,7 8 4 20 11 NW 1024,5 70 60 0,0
11.08.2018 09:00:00 17,7 9,7 17,2 18,9 22,4 23,7 11 6 19 11 W 1024,9 70 34 0,0
11.08.2018 08:00:00 16,1 11,4 16,3 18,9 22,6 23,7 6 4 12 6 W 1024,9 70 11 0,0
11.08.2018 07:00:00 15,1 11,8 13,9 18,4 22,9 23,7 6 3 10 5 WSW 1024,4 70 0 0,0
11.08.2018 06:00:00 14,4 12,0 13,1 18,5 23,3 23,7 7 4 9 5 W 1024,1 70 0 0,0
11.08.2018 05:00:00 14,5 12,4 12,8 18,9 23,6 23,7 6 3 8 5 WSW 1023,7 70 0 0,0
11.08.2018 04:00:00 15,0 12,7 13,0 19,4 24,0 23,7 5 3 11 6 W 1023,5 70 0 0,0
11.08.2018 03:00:00 15,4 12,6 13,7 19,9 24,3 23,7 5 3 6 3 W 1023,4 70 0 0,0
11.08.2018 02:00:00 16,0 12,5 13,7 20,5 24,7 23,7 5 3 9 5 N 1023,4 70 0 0,0
11.08.2018 01:00:00 17,0 12,6 15,2 21,1 25,1 23,8 6 3 8 5 NNE 1023,3 70 0 0,0
11.08.2018 00:00:00 18,0 11,7 15,0 21,8 25,5 23,8 3 1 6 3 W 1023,1 70 0 0,0
10.08.2018 23:00:00 19,1 11,7 16,5 22,7 26,0 23,8 4 2 8 5 SE 1022,9 70 0 0,0
10.08.2018 22:00:00 19,1 11,7 17,0 23,7 26,4 23,8 4 2 11 6 SE 1022,9 70 0 0,0
10.08.2018 21:00:00 20,3 12,2 18,8 25,1 26,7 23,8 8 4 19 10 S 1022,3 70 26 0,0

tt = Température de l'air
td = dewpoint
tt 5cm = Température de l'air 5cm
tt -5cm = Température de l'air -5cm
tt -20cm = Température de l'air -20cm
tt -100cm = Température de l'air -100cm
ff = Vitesse du vent
fx = gusts
dd = Direction du vent
ppp = reduced air pressure
vv = visibility
sd = Ensoleillement
rr = Quantités de précipitations

stations d'obs. à proximité